This is the latest recevied weather packets stored in our database for station/object W4SNA-4. If no packets are shown the sender has not sent any weather packets the latest 10 day(s).
| Time | Temp. | Humidity | Pressure | Rain* | Wind** | Luminosity | Snow |
|---|---|---|---|---|---|---|---|
| 1787588887 | 27.22° C | 56% | 1012.1 hPa | 0 mm | - | - | - |
| 1787588587 | 27.22° C | 58% | 1012.2 hPa | 0 mm | - | - | - |
| 1787588286 | 27.22° C | 59% | 1012.2 hPa | 0 mm | - | - | - |
| 1787587990 | 27.22° C | 60% | 1012.2 hPa | 0 mm | - | - | - |
| 1787587687 | 27.22° C | 60% | 1012.2 hPa | 0 mm | - | - | - |
| 1787587386 | 27.22° C | 57% | 1012.2 hPa | 0 mm | - | - | - |
| 1787586906 | 27.22° C | 60% | 1012.2 hPa | 0 mm | - | - | - |
| 1787586606 | 27.22° C | 58% | 1012.2 hPa | 0 mm | - | - | - |
| 1787586307 | 27.22° C | 62% | 1012.2 hPa | 0 mm | - | - | - |
| 1787586006 | 27.22° C | 59% | 1012.4 hPa | 0 mm | - | - | - |
| 1787585706 | 27.22° C | 63% | 1012.4 hPa | 0 mm | - | - | - |
| 1787585407 | 26.67° C | 67% | 1012.4 hPa | 0 mm | - | - | - |
| 1787585106 | 26.67° C | 66% | 1012.6 hPa | 0 mm | - | - | - |
| 1787584806 | 26.67° C | 65% | 1012.6 hPa | 0 mm | - | - | - |
| 1787584506 | 26.11° C | 66% | 1012.6 hPa | 0 mm | - | - | - |
| 1787584206 | 26.11° C | 67% | 1012.5 hPa | 0 mm | - | - | - |
| 1787583906 | 25.56° C | 68% | 1012.5 hPa | 0 mm | - | - | - |
| 1787583606 | 25.56° C | 68% | 1012.5 hPa | 0 mm | - | - | - |
| 1787583306 | 25° C | 68% | 1012.4 hPa | 0 mm | - | - | - |
| 1787583006 | 24.44° C | 70% | 1012.4 hPa | 0 mm | - | - | - |
| 1787582706 | 24.44° C | 69% | 1012.4 hPa | 0 mm | - | - | - |
| 1787582406 | 23.89° C | 72% | 1012.2 hPa | 0 mm | - | - | - |
| 1787582107 | 23.89° C | 73% | 1012.2 hPa | 0 mm | - | - | - |
| 1787581806 | 23.33° C | 77% | 1012.2 hPa | 0 mm | - | - | - |
| 1787581506 | 23.33° C | 77% | 1012.2 hPa | 0 mm | - | - | - |
* Rain latest hour (hover to see other rain measurements)
** Current wind speed in m/s (hover to see current wind gust speed)